Voltar ao catálogo

FENGYUN 1C DEB

AtivoPO
NORAD 30396·DEBRIS·🇨🇳 China

Lançado May 10, 1999 de Taiyuan Satellite Launch Center

Loading…

Próximas Passagens (próximas 24 horas)

TLE

AtualizadoSource: Space-Track

Época: Sep 14, 2026, 17:17 UTC

1 30396U 99025ADK 26257.72044115  .00000068  00000-0  81835-4 0  9995
2 30396  98.2423 234.8404 0135310  86.5643  87.4520 13.87247249994051

Acompanhe FENGYUN 1C DEB em tempo real com AllMySat

Download on the App Store